Location: B?lite?ti
(46.2833°N, 22.7333°E)
Time: 04:47:40
(UTC+00:00)

Meteor 1-11 - Pass Details

Date: 24 January 2021
Orbit: 840 x 887 km, 81.2° (Epoch: 26 February)

Event Time Altitude Azimuth Distance (km) Brightness Sun altitude
Rises 17:32:55 0° 189° (S) 3,446 7.5 -22.4°
Reaches altitude 10° 17:35:21 10° 189° (S) 2,506 6.8 -22.9°
Maximum altitude 17:41:04 90° 138° (SE) 867 4.1 -23.8°
Drops below altitude 10° 17:46:44 10° 11° (N) 2,492 6.5 -24.8°
Enters shadow 17:47:30 - 11° (NNE) 2,784 6.8 -24.9°
